Location: Unspecified
(0.0000°N, 0.0000°E)
Time: 14:05:06
(UTC+00:00)

Altair - Pass Details

Date: 22 March 2026
Orbit: 1502 x 1682 km, 47.2° (Epoch: 18 April)

Event Time Altitude Azimuth Distance (km) Brightness Sun altitude
Exits shadow 02:16:25 10° 41° (NE) 3,654 9.7 -57.6°
Maximum altitude 02:17:01 10° 45° (NE) 3,651 9.7 -57.5°
Drops below altitude 10° 02:18:12 10° 52° (NE) 3,680 9.7 -57.2°
Sets 02:25:41 0° 91° (E) 4,715 10.6 -55.3°
